Simultaneous Nadir Overpasses (SNOs) Predictions

Prediction of SNOs between AQUA and NPP Satellite Orbit:

Table of predicted SNOs for the next 14.0 days since TLE Epoch: 12/7/2024
Index Date (AQUA) Time (AQUA) Lat,Lon (AQUA) SZA (AQUA ) Date (NPP) Time (NPP) Lat,Lon (NPP) SZA (NPP ) Distance(km) Time Diff (sec)
1 12/09/2024 12:46:37 -81.29, 96.95 70.41 12/09/2024 12:45:37 -81.29, 96.98 70.37 0.60 60
2 12/09/2024 13:35:56 81.30, -95.26 109.59 12/09/2024 13:36:21 81.30, -95.31 109.58 0.80 25
3 12/11/2024 23:58:12 -81.30, -70.62 70.21 12/11/2024 23:58:06 -81.30, -70.52 70.22 1.81 6
4 12/14/2024 10:20:26 81.30, -46.23 110.00 12/14/2024 10:19:52 81.30, -46.30 110.03 1.20 34
5 12/14/2024 11:09:46 -81.30, 121.45 70.01 12/14/2024 11:10:36 -81.30, 121.49 70.04 0.67 50
6 12/16/2024 20:42:39 -81.29, -21.87 69.85 12/16/2024 20:41:38 -81.29, -22.01 69.79 2.39 61
7 12/16/2024 21:31:58 81.30, 145.88 110.15 12/16/2024 21:32:21 81.30, 145.97 110.12 1.65 23



Historial Predications of SNOs between AQUA and NPP
